TimeCDT,TemperatureF,Dew PointF,Humidity,Sea Level PressureIn,VisibilityMPH,Wind Direction,Wind SpeedMPH,Gust SpeedMPH,PrecipitationIn,Events,Conditions,WindDirDegrees,DateUTC
12:53 AM,51.1,37.0,59,29.66,10.0,North,4.6,-,N/A,,Clear,360,2012-10-16 05:53:00
1:53 AM,51.1,37.0,59,29.64,10.0,Calm,Calm,-,N/A,,Clear,0,2012-10-16 06:53:00
2:53 AM,50.0,37.9,63,29.61,10.0,Calm,Calm,-,N/A,,Partly Cloudy,0,2012-10-16 07:53:00
3:53 AM,50.0,37.9,63,29.58,10.0,Calm,Calm,-,N/A,,Clear,0,2012-10-16 08:53:00
4:53 AM,48.9,39.0,69,29.58,10.0,Calm,Calm,-,N/A,,Clear,0,2012-10-16 09:53:00
5:53 AM,50.0,39.0,66,29.58,10.0,Calm,Calm,-,N/A,,Mostly Cloudy,0,2012-10-16 10:53:00
7:53 AM,46.0,37.9,73,29.58,10.0,Calm,Calm,-,N/A,,Mostly Cloudy,0,2012-10-16 12:53:00
8:53 AM,46.9,37.9,71,29.58,10.0,Calm,Calm,-,N/A,,Clear,0,2012-10-16 13:53:00
9:53 AM,55.9,43.0,62,29.57,10.0,NW,8.1,-,N/A,,Clear,320,2012-10-16 14:53:00
10:53 AM,63.0,45.0,52,29.54,10.0,NNW,3.5,-,N/A,,Clear,340,2012-10-16 15:53:00
11:53 AM,66.0,45.0,47,29.53,10.0,NW,5.8,-,N/A,,Clear,310,2012-10-16 16:53:00
12:53 PM,66.9,44.1,44,29.50,10.0,West,5.8,-,N/A,,Clear,260,2012-10-16 17:53:00
1:53 PM,69.1,44.1,40,29.45,10.0,NW,8.1,-,N/A,,Clear,310,2012-10-16 18:53:00
2:53 PM,68.0,45.0,43,29.44,10.0,WNW,8.1,-,N/A,,Scattered Clouds,300,2012-10-16 19:53:00
3:53 PM,69.1,44.1,40,29.41,10.0,Calm,Calm,-,N/A,,Clear,0,2012-10-16 20:53:00
4:53 PM,68.0,44.1,42,29.41,10.0,SW,10.4,-,N/A,,Partly Cloudy,220,2012-10-16 21:53:00
5:53 PM,64.9,44.1,47,29.40,10.0,Calm,Calm,-,N/A,,Clear,0,2012-10-16 22:53:00
6:53 PM,60.1,44.1,55,29.39,9.0,Calm,Calm,-,N/A,,Clear,0,2012-10-16 23:53:00
7:53 PM,60.1,43.0,53,29.36,10.0,ESE,4.6,-,N/A,,Clear,120,2012-10-17 00:53:00
8:53 PM,54.0,42.1,64,29.37,10.0,South,4.6,-,N/A,,Clear,170,2012-10-17 01:53:00
9:53 PM,57.0,42.1,57,29.34,10.0,SE,3.5,-,N/A,,Clear,130,2012-10-17 02:53:00
10:53 PM,55.9,42.1,60,29.29,10.0,ESE,4.6,-,N/A,,Clear,120,2012-10-17 03:53:00
11:53 PM,55.0,42.1,62,29.30,10.0,South,5.8,-,N/A,,Overcast,180,2012-10-17 04:53:00